Weather History for Muskogee, OK

Change the Weather History Date:

Sunday, March 17, 2013

  Actual Average Record
Temperature  
Mean Temperature 50 °F -  
Max Temperature 55 °F 59 °F 82 °F (2009)
Min Temperature 44 °F 38 °F 27 °F (2014)
Degree Days  
Heating Degree Days 16    
Moisture  
Dew Point 44 °F    
Average Humidity 90    
Maximum Humidity 100    
Minimum Humidity 62    
Precipitation  
Precipitation 0.11 in - - ()
Sea Level Pressure  
Sea Level Pressure 29.77 in    
Wind  
Wind Speed 10 mph (NNW)    
Max Wind Speed 17 mph    
Max Gust Speed 21 mph    
Visibility 5 miles    
Events Rain    
Averages and records for this station are not official NWS values.
T = Trace of Precipitation, MM = Missing Value Source: NWS Daily Summary

Daily Weather History Graph

Daily Weather History Graph

Search for Another Location

Airport:

Trip Planner

Search our weather history database for the weather conditions in past years. The results will help you decide how hot, cold, wet, or windy it might be!

Date:

Astronomy

Mar. 17, 2013 Rise Set
Actual Time 7:28 AM CDT 7:30 PM CDT
Civil Twilight 7:03 AM CDT 7:56 PM CDT
Nautical Twilight 6:33 AM CDT 8:26 PM CDT
Astronomical Twilight 6:03 AM CDT 8:56 PM CDT
Moon 10:53 AM CDT (3/17) 12:29 AM CDT (3/17)
Length of Visible Light 12h 52m
Length of Day
12h 01m
Waxing Crescent, 31% of the Moon is Illuminated
Mar 17
Waxing Crescent
Mar 19
First Quarter
Mar 27
Full
Apr 2
Last Quarter
Apr 10
New

Hourly Weather History & Observations

Time (CDT) Temp. Windchill Dew Point Humidity Pressure Visibility Wind Dir Wind Speed Gust Speed Precip Events Conditions
12:53 AM 55.9 °F - 43.0 °F 62% 29.79 in 8.0 mi North 15.0 mph - N/A   Overcast
1:53 AM 54.0 °F - 42.1 °F 64% 29.79 in 7.0 mi North 13.8 mph - N/A   Overcast
2:53 AM 52.0 °F - 39.9 °F 63% 29.79 in 8.0 mi North 16.1 mph 20.7 mph N/A   Overcast
3:53 AM 50.0 °F - 39.9 °F 68% 29.77 in 9.0 mi North 11.5 mph - N/A   Mostly Cloudy
4:53 AM 48.9 °F - 41.0 °F 74% 29.79 in 9.0 mi North 16.1 mph - N/A   Overcast
5:53 AM 48.0 °F - 39.9 °F 74% 29.79 in 9.0 mi North 13.8 mph - N/A   Overcast
6:53 AM 48.0 °F - 39.9 °F 74% 29.81 in 9.0 mi North 17.3 mph - N/A   Overcast
7:53 AM 46.9 °F - 41.0 °F 80% 29.81 in 7.0 mi NNE 13.8 mph - N/A   Overcast
8:53 AM 46.9 °F - 43.0 °F 86% 29.82 in 4.0 mi NNE 8.1 mph - 0.00 in   Overcast
9:53 AM 46.9 °F - 44.1 °F 90% 29.82 in 4.0 mi NNE 10.4 mph - N/A   Overcast
10:04 AM 46.4 °F 41.1 °F 44.6 °F 93% 29.82 in 4.0 mi NNE 11.5 mph - 0.00 in Rain Light Rain
10:53 AM 46.9 °F - 45.0 °F 93% 29.82 in 2.5 mi NNE 8.1 mph - 0.00 in Rain Light Rain
11:02 AM 46.4 °F 42.9 °F 46.4 °F 100% 29.82 in 3.0 mi NNE 6.9 mph - 0.00 in Rain Light Rain
11:23 AM 46.4 °F 42.9 °F 46.4 °F 100% 29.81 in 2.5 mi NE 6.9 mph - 0.00 in Rain Light Rain
11:53 AM 46.9 °F - 46.0 °F 97% 29.79 in 2.0 mi NNE 4.6 mph - 0.01 in Rain Light Rain
12:03 PM 46.4 °F - 46.4 °F 100% 29.79 in 1.8 mi Calm Calm - 0.00 in Rain Light Rain
12:53 PM 46.9 °F - 46.9 °F 100% 29.78 in 1.8 mi North 4.6 mph - 0.03 in Rain Light Rain
1:07 PM 46.4 °F 44.3 °F 46.4 °F 100% 29.77 in 2.0 mi NNE 4.6 mph - 0.01 in Rain Light Rain
1:37 PM 46.4 °F 44.3 °F 46.4 °F 100% 29.77 in 1.8 mi NNW 4.6 mph - 0.02 in Rain Light Rain
1:53 PM 46.9 °F - 46.9 °F 100% 29.76 in 1.8 mi NW 3.5 mph - 0.03 in Rain Light Rain
2:02 PM 46.4 °F 44.3 °F 46.4 °F 100% 29.76 in 3.0 mi NW 4.6 mph - 0.00 in Rain Light Rain
2:46 PM 48.2 °F - 46.4 °F 93% 29.74 in 2.0 mi NW 5.8 mph - 0.01 in Rain Light Rain
2:53 PM 48.0 °F - 46.9 °F 96% 29.74 in 2.5 mi WNW 3.5 mph - 0.01 in Rain Light Rain
3:22 PM 48.2 °F - 46.4 °F 93% 29.73 in 4.0 mi WNW 8.1 mph - 0.02 in Rain Light Rain
3:38 PM 48.2 °F - 46.4 °F 93% 29.73 in 2.5 mi WNW 6.9 mph - 0.02 in Rain Light Rain
3:51 PM 48.2 °F - 46.4 °F 93% 29.73 in 3.0 mi WNW 6.9 mph - 0.02 in Rain Light Rain
3:53 PM 48.0 °F - 46.9 °F 96% 29.72 in 2.5 mi WNW 5.8 mph - 0.02 in Rain Light Rain
4:11 PM 46.4 °F 41.5 °F 46.4 °F 100% 29.73 in 3.0 mi West 10.4 mph - 0.01 in Rain Light Rain
4:53 PM 46.9 °F - 46.0 °F 97% 29.72 in 5.0 mi WNW 9.2 mph - 0.01 in   Overcast
5:53 PM 46.0 °F 42.5 °F 45.0 °F 96% 29.73 in 4.0 mi West 6.9 mph - N/A   Overcast
6:53 PM 46.0 °F 41.9 °F 45.0 °F 96% 29.74 in 4.0 mi WNW 8.1 mph - N/A   Overcast
7:23 PM 46.4 °F 44.3 °F 44.6 °F 93% 29.72 in 6.0 mi West 4.6 mph - N/A   Overcast
7:53 PM 46.0 °F 43.9 °F 44.1 °F 93% 29.73 in 6.0 mi West 4.6 mph - N/A   Overcast
8:53 PM 45.0 °F 41.8 °F 44.1 °F 97% 29.74 in 5.0 mi WNW 5.8 mph - N/A   Overcast
9:53 PM 45.0 °F 41.2 °F 44.1 °F 97% 29.77 in 7.0 mi WNW 6.9 mph - N/A   Overcast
10:53 PM 45.0 °F - 44.1 °F 97% 29.76 in 7.0 mi Calm Calm - N/A   Overcast
11:34 PM 44.6 °F 41.4 °F 42.8 °F 93% 29.75 in 7.0 mi NW 5.8 mph - N/A   Overcast
11:53 PM 45.0 °F 43.5 °F 43.0 °F 93% 29.75 in 7.0 mi NW 3.5 mph - N/A   Overcast